Skip Page Navigation
NASA JPL Caltech
NASA Logo - Jet Propulsion Laboratory + View the NASA Portal
+ Center for Near-Earth Object Studies
JPL Home Earth Solar System Stars & Galaxies Technology
JPL Solar System Dynamics
BODIES ORBITS EPHEMERIDES TOOLS PHYSICAL DATA DISCOVERY FAQ SITE MAP
JPL Small-Body Database Browser
Search: [ help ]  
437853 (1999 VR111)
Classification: Main-belt Asteroid          SPK-ID: 2437853
Ephemeris | Orbit Diagram | Orbital Elements | Mission Design | Physical Parameters | Discovery Circumstances | Close-Approach Data ]

[ show orbit diagram ]
Orbital Elements at Epoch 2459000.5 (2020-May-31.0) TDB
Reference: JPL 10 (heliocentric ecliptic J2000)
 Element Value Uncertainty (1-sigma)   Units 
e .294726997499656 1.1902e-07  
a 2.669333518413556 3.1028e-08 au
q 1.882608865206336 3.2973e-07 au
i 12.05631600885036 9.0091e-06 deg
node 240.7274609234001 2.7798e-05 deg
peri 171.3522781676297 3.375e-05 deg
M 264.6429056024439 1.7452e-05 deg
tp 2459422.442425658668
(2021-Jul-26.94242566)
8.3124e-05 TDB
period 1592.951989537692
4.36
2.7774e-05
7.604e-08
d
yr
n .2259955117068403 3.9404e-09 deg/d
Q 3.456058171620776 4.0173e-08 au
  Orbit Determination Parameters
   # obs. used (total)      171  
   data-arc span      7550 days (20.67 yr)  
   first obs. used      1999-10-13  
   last obs. used      2020-06-14  
   planetary ephem.      DE431  
   SB-pert. ephem.      SB431-N16  
   condition code      0  
   norm. resid. RMS      .59467  
   source      ORB  
   producer      Otto Matic  
   solution date      2020-Nov-12 09:33:45  

Additional Information
 Earth MOID = .894868 au 
 Jupiter MOID = 1.93117 au 
 T_jup = 3.288 
[ show covariance matrix ]

Ephemeris | Orbit Diagram | Orbital Elements | Mission Design | Physical Parameters | Discovery Circumstances | Close-Approach Data ]

Physical Parameter Table
Parameter Symbol Value Units Sigma Reference Notes
absolute magnitude H 16.8   n/a MPO472433  

437853 (1999 VR111)          Discovered 1999-Nov-09 by LINEAR at Socorro
Reference: Last Updated: 2015-07-06

[ show close-approach data ]
Ephemeris | Orbit Diagram | Orbital Elements | Mission Design | Physical Parameters | Discovery Circumstances | Close-Approach Data ]
ABOUT SSD CREDITS/AWARDS PRIVACY/COPYRIGHT GLOSSARY LINKS
FirstGov 2020-Dec-01 22:13 UT
(server date/time)  
NASA Home Page
Site Manager:   Ryan S. Park
Webmaster  Alan B. Chamberlin